Radioactive Concentration measured at Dust Monitors near the Site Boundary of Fukushima Daiichi Nuclear Power Station
Date,Time,MP1(Bq/cm3),MP2(Bq/cm3),MP3(Bq/cm3),MP4(Bq/cm3),MP5(Bq/cm3),MP6(Bq/cm3),MP7(Bq/cm3),MP8(Bq/cm3),Wind Direction,Wind Velocity(m/s)
2022/11/26,00:00,1.0E-06,1.0E-06,1.0E-06,1.0E-06,1.0E-06,1.0E-06,1.0E-06,1.0E-06,south-southwest,4.3
2022/11/26,00:10,1.0E-06,1.0E-06,1.0E-06,1.0E-06,1.0E-06,1.0E-06,1.0E-06,1.0E-06,south-southwest,4.7
2022/11/26,00:20,1.0E-06,1.0E-06,1.0E-06,1.0E-06,1.0E-06,1.0E-06,1.0E-06,1.0E-06,south-southwest,4.5
2022/11/26,00:30,1.0E-06,1.0E-06,1.0E-06,1.0E-06,1.0E-06,1.0E-06,1.0E-06,1.0E-06,south-southwest,4.9
2022/11/26,00:40,1.0E-06,1.0E-06,1.0E-06,1.0E-06,1.0E-06,1.0E-06,1.0E-06,1.0E-06,south-southwest,4.7
2022/11/26,00:50,1.0E-06,1.0E-06,1.0E-06,1.0E-06,1.0E-06,1.0E-06,1.0E-06,1.0E-06,south-southwest,4.2
2022/11/26,01:00,1.0E-06,1.0E-06,1.0E-06,1.0E-06,1.0E-06,1.0E-06,1.0E-06,1.0E-06,south-southwest,5.4
2022/11/26,01:10,1.0E-06,1.0E-06,1.0E-06,1.0E-06,1.0E-06,1.0E-06,1.0E-06,1.0E-06,south-southwest,5.4
2022/11/26,01:20,1.0E-06,1.0E-06,1.0E-06,1.0E-06,1.0E-06,1.0E-06,1.0E-06,1.0E-06,south,4.6
2022/11/26,01:30,1.0E-06,1.0E-06,1.0E-06,1.0E-06,1.0E-06,1.0E-06,1.0E-06,1.0E-06,south,3.8
2022/11/26,01:40,1.0E-06,1.0E-06,1.0E-06,1.0E-06,1.0E-06,1.0E-06,1.0E-06,1.0E-06,south,3.8
2022/11/26,01:50,1.0E-06,1.0E-06,1.0E-06,1.0E-06,1.0E-06,1.0E-06,1.0E-06,1.0E-06,south,4.0
2022/11/26,02:00,1.0E-06,1.0E-06,1.0E-06,1.0E-06,1.0E-06,1.0E-06,1.0E-06,1.0E-06,south,4.1
2022/11/26,02:10,1.0E-06,1.0E-06,1.0E-06,1.0E-06,1.0E-06,1.0E-06,1.0E-06,1.0E-06,south-southeast,2.9
2022/11/26,02:20,1.0E-06,1.0E-06,1.0E-06,1.0E-06,1.0E-06,1.0E-06,1.0E-06,1.0E-06,south-southeast,3.4
2022/11/26,02:30,1.0E-06,1.0E-06,1.0E-06,1.0E-06,1.0E-06,1.0E-06,1.0E-06,1.0E-06,south,3.3
2022/11/26,02:40,1.0E-06,1.0E-06,1.0E-06,1.0E-06,1.0E-06,1.0E-06,1.0E-06,1.0E-06,south,3.0
2022/11/26,02:50,1.0E-06,1.0E-06,1.0E-06,1.0E-06,1.0E-06,1.0E-06,1.0E-06,1.0E-06,south-southwest,3.3
2022/11/26,03:00,1.0E-06,1.0E-06,1.0E-06,1.0E-06,1.0E-06,1.0E-06,1.0E-06,1.0E-06,south-southwest,2.6
2022/11/26,03:10,1.0E-06,1.0E-06,1.0E-06,1.0E-06,1.0E-06,1.0E-06,1.0E-06,1.0E-06,south-southwest,2.8
2022/11/26,03:20,1.0E-06,1.0E-06,1.0E-06,1.0E-06,1.0E-06,1.0E-06,1.0E-06,1.0E-06,south-southwest,4.5
2022/11/26,03:30,1.0E-06,1.0E-06,1.0E-06,1.0E-06,1.0E-06,1.0E-06,1.0E-06,1.0E-06,south-southwest,4.6
2022/11/26,03:40,1.0E-06,1.0E-06,1.0E-06,1.0E-06,1.0E-06,1.0E-06,1.0E-06,1.0E-06,south-southwest,3.1
2022/11/26,03:50,1.0E-06,1.0E-06,1.0E-06,1.0E-06,1.0E-06,1.0E-06,1.0E-06,1.0E-06,south-southwest,1.9
2022/11/26,04:00,1.0E-06,1.0E-06,1.0E-06,1.0E-06,1.0E-06,1.0E-06,1.0E-06,1.0E-06,south-southwest,2.8
2022/11/26,04:10,1.0E-06,1.0E-06,1.0E-06,1.0E-06,1.0E-06,1.0E-06,1.0E-06,1.0E-06,south-southwest,4.1
2022/11/26,04:20,1.0E-06,1.0E-06,1.0E-06,1.0E-06,1.0E-06,1.0E-06,1.0E-06,1.0E-06,south-southwest,3.0
2022/11/26,04:30,1.0E-06,1.0E-06,1.0E-06,1.0E-06,1.0E-06,1.0E-06,1.0E-06,1.0E-06,south-southwest,2.4
2022/11/26,04:40,1.0E-06,1.0E-06,1.0E-06,1.0E-06,1.0E-06,1.0E-06,1.0E-06,1.0E-06,southwest,0.9
2022/11/26,04:50,1.0E-06,1.0E-06,1.0E-06,1.0E-06,1.0E-06,1.0E-06,1.0E-06,1.0E-06,southwest,0.8
2022/11/26,05:00,1.0E-06,1.0E-06,1.0E-06,1.0E-06,1.0E-06,1.0E-06,1.0E-06,1.0E-06,south-southwest,1.5
2022/11/26,05:10,1.0E-06,1.0E-06,1.0E-06,1.0E-06,1.0E-06,1.0E-06,1.0E-06,1.0E-06,southwest,1.4
2022/11/26,05:20,1.0E-06,1.0E-06,1.0E-06,1.0E-06,1.0E-06,1.0E-06,1.0E-06,1.0E-06,south-southwest,2.7
2022/11/26,05:30,1.0E-06,1.0E-06,1.0E-06,1.0E-06,1.0E-06,1.0E-06,1.0E-06,1.0E-06,south-southwest,3.9
2022/11/26,05:40,1.0E-06,1.0E-06,1.0E-06,1.0E-06,1.0E-06,1.0E-06,1.0E-06,1.0E-06,south-southwest,3.7
2022/11/26,05:50,1.0E-06,1.0E-06,1.0E-06,1.0E-06,1.0E-06,1.0E-06,1.0E-06,1.0E-06,south-southwest,3.5
2022/11/26,06:00,1.0E-06,1.0E-06,1.0E-06,1.0E-06,1.0E-06,1.0E-06,1.0E-06,1.0E-06,south-southwest,2.9
2022/11/26,06:10,1.0E-06,1.0E-06,1.0E-06,1.0E-06,1.0E-06,1.0E-06,1.0E-06,1.0E-06,south-southwest,2.5
2022/11/26,06:20,1.0E-06,1.0E-06,1.0E-06,1.0E-06,1.0E-06,1.0E-06,1.0E-06,1.0E-06,south-southwest,1.6
2022/11/26,06:30,1.0E-06,1.0E-06,1.0E-06,1.0E-06,1.0E-06,1.0E-06,1.0E-06,1.0E-06,south-southwest,2.3
2022/11/26,06:40,1.0E-06,1.0E-06,1.0E-06,1.0E-06,1.0E-06,1.0E-06,1.0E-06,1.0E-06,south-southwest,3.1
2022/11/26,06:50,1.0E-06,1.0E-06,1.0E-06,1.0E-06,1.0E-06,1.0E-06,1.0E-06,1.0E-06,south-southwest,3.6
2022/11/26,07:00,1.0E-06,1.0E-06,1.0E-06,1.0E-06,1.0E-06,1.0E-06,1.0E-06,1.0E-06,south-southwest,3.8
2022/11/26,07:10,1.0E-06,1.0E-06,1.0E-06,1.0E-06,1.0E-06,1.0E-06,1.0E-06,1.0E-06,south-southwest,3.9
2022/11/26,07:20,1.0E-06,1.0E-06,1.0E-06,1.0E-06,1.0E-06,1.0E-06,1.0E-06,1.0E-06,south-southwest,4.3
2022/11/26,07:30,1.0E-06,1.0E-06,1.0E-06,1.0E-06,1.0E-06,1.0E-06,1.0E-06,1.0E-06,south-southwest,4.6
2022/11/26,07:40,1.0E-06,1.0E-06,1.0E-06,1.0E-06,1.0E-06,1.0E-06,1.0E-06,1.0E-06,south-southwest,5.4
2022/11/26,07:50,1.0E-06,1.0E-06,1.0E-06,1.0E-06,1.0E-06,1.0E-06,1.0E-06,1.0E-06,south-southwest,5.5
2022/11/26,08:00,1.0E-06,1.0E-06,1.0E-06,1.0E-06,1.0E-06,1.0E-06,1.0E-06,1.0E-06,south-southwest,4.7
2022/11/26,08:10,1.0E-06,1.0E-06,1.0E-06,1.0E-06,1.0E-06,1.0E-06,1.0E-06,1.0E-06,south-southwest,5.9
2022/11/26,08:20,1.0E-06,1.0E-06,1.0E-06,1.0E-06,1.0E-06,1.0E-06,1.0E-06,1.0E-06,south-southwest,6.4
2022/11/26,08:30,1.0E-06,1.0E-06,1.0E-06,1.0E-06,1.0E-06,1.0E-06,1.0E-06,1.0E-06,south,6.3
2022/11/26,08:40,1.0E-06,1.0E-06,1.0E-06,1.0E-06,1.0E-06,1.0E-06,1.0E-06,1.0E-06,south,6.4
2022/11/26,08:50,1.0E-06,1.0E-06,1.0E-06,1.0E-06,1.0E-06,1.0E-06,1.0E-06,1.0E-06,south,5.1
2022/11/26,09:00,1.0E-06,1.0E-06,1.0E-06,1.0E-06,1.0E-06,1.0E-06,1.0E-06,1.0E-06,south,5.0
2022/11/26,09:10,1.0E-06,1.0E-06,1.0E-06,1.0E-06,1.0E-06,1.0E-06,1.0E-06,1.0E-06,south,4.7
2022/11/26,09:20,1.0E-06,1.0E-06,1.0E-06,1.0E-06,1.0E-06,1.0E-06,1.0E-06,1.0E-06,south,4.8
2022/11/26,09:30,1.0E-06,1.0E-06,1.0E-06,1.0E-06,1.0E-06,1.0E-06,1.0E-06,1.0E-06,south,4.5
2022/11/26,09:40,1.0E-06,1.0E-06,1.0E-06,1.0E-06,1.0E-06,1.0E-06,1.0E-06,1.0E-06,south,4.2
2022/11/26,09:50,1.0E-06,1.0E-06,1.0E-06,1.0E-06,1.0E-06,1.0E-06,1.0E-06,1.0E-06,south,4.1
2022/11/26,10:00,1.0E-06,1.0E-06,1.0E-06,1.0E-06,1.0E-06,1.0E-06,1.0E-06,1.0E-06,south,3.8
2022/11/26,10:10,1.0E-06,1.0E-06,1.0E-06,1.0E-06,1.0E-06,1.0E-06,1.0E-06,1.0E-06,south,3.8
2022/11/26,10:20,1.0E-06,1.0E-06,1.0E-06,1.0E-06,1.0E-06,1.0E-06,1.0E-06,1.0E-06,south,4.3
2022/11/26,10:30,1.0E-06,1.0E-06,1.0E-06,1.0E-06,1.0E-06,1.0E-06,1.0E-06,1.0E-06,south,3.8
2022/11/26,10:40,1.0E-06,1.0E-06,1.0E-06,1.0E-06,1.0E-06,1.0E-06,1.0E-06,1.0E-06,south,4.2
2022/11/26,10:50,1.0E-06,1.0E-06,1.0E-06,1.0E-06,1.0E-06,1.0E-06,1.0E-06,1.0E-06,south,4.6
2022/11/26,11:00,1.0E-06,1.0E-06,1.0E-06,1.0E-06,1.0E-06,1.0E-06,1.0E-06,1.0E-06,south-southeast,5.7
2022/11/26,11:10,1.0E-06,1.0E-06,1.0E-06,1.0E-06,1.0E-06,1.0E-06,1.0E-06,1.0E-06,south-southeast,5.7
2022/11/26,11:20,1.0E-06,1.0E-06,1.0E-06,1.0E-06,1.0E-06,1.0E-06,1.0E-06,1.0E-06,south-southeast,5.6
2022/11/26,11:30,1.0E-06,1.0E-06,1.0E-06,1.0E-06,1.0E-06,1.0E-06,1.0E-06,1.0E-06,south,4.8
2022/11/26,11:40,1.0E-06,1.0E-06,1.0E-06,1.0E-06,1.0E-06,1.0E-06,1.0E-06,1.0E-06,south,4.7
2022/11/26,11:50,1.0E-06,1.0E-06,1.0E-06,1.0E-06,1.0E-06,1.0E-06,1.0E-06,1.0E-06,south,6.3
2022/11/26,12:00,1.0E-06,1.0E-06,1.0E-06,1.0E-06,1.0E-06,1.0E-06,1.0E-06,1.0E-06,south,8.5
2022/11/26,12:10,1.0E-06,1.0E-06,1.0E-06,1.0E-06,1.0E-06,1.0E-06,1.0E-06,1.0E-06,south-southwest,6.7
2022/11/26,12:20,1.0E-06,1.0E-06,1.0E-06,1.0E-06,1.0E-06,1.0E-06,1.0E-06,1.0E-06,south,5.2
2022/11/26,12:30,1.0E-06,1.0E-06,1.0E-06,1.0E-06,1.0E-06,1.0E-06,1.0E-06,1.0E-06,south-southwest,4.1
2022/11/26,12:40,1.0E-06,1.0E-06,1.0E-06,1.0E-06,1.0E-06,1.0E-06,1.0E-06,1.0E-06,south-southwest,3.7
2022/11/26,12:50,1.0E-06,1.0E-06,1.0E-06,1.0E-06,1.0E-06,1.0E-06,1.0E-06,1.0E-06,south,3.4
2022/11/26,13:00,1.0E-06,1.0E-06,1.0E-06,1.0E-06,1.0E-06,1.0E-06,1.0E-06,1.0E-06,south,3.0
2022/11/26,13:10,1.0E-06,1.0E-06,1.0E-06,1.0E-06,1.0E-06,1.0E-06,1.0E-06,1.0E-06,south,3.5
2022/11/26,13:20,1.0E-06,1.0E-06,1.0E-06,1.0E-06,1.0E-06,1.0E-06,1.0E-06,1.0E-06,south-southwest,5.0
2022/11/26,13:30,1.0E-06,1.0E-06,1.0E-06,1.0E-06,1.0E-06,1.0E-06,1.0E-06,1.0E-06,south-southwest,5.4
2022/11/26,13:40,1.0E-06,1.0E-06,1.0E-06,1.0E-06,1.0E-06,1.0E-06,1.0E-06,1.0E-06,south-southwest,4.5
2022/11/26,13:50,1.0E-06,1.0E-06,1.0E-06,1.0E-06,1.0E-06,1.0E-06,1.0E-06,1.0E-06,south-southwest,5.6
2022/11/26,14:00,1.0E-06,1.0E-06,1.0E-06,1.0E-06,1.0E-06,1.0E-06,1.0E-06,1.0E-06,south-southwest,4.4
2022/11/26,14:10,1.0E-06,1.0E-06,1.0E-06,1.0E-06,1.0E-06,1.0E-06,1.0E-06,1.0E-06,south-southwest,3.9
2022/11/26,14:20,1.0E-06,1.0E-06,1.0E-06,1.0E-06,1.0E-06,1.0E-06,1.0E-06,1.0E-06,south-southwest,3.3
2022/11/26,14:30,1.0E-06,1.0E-06,1.0E-06,1.0E-06,1.0E-06,1.0E-06,1.0E-06,1.0E-06,south-southwest,4.7
2022/11/26,14:40,1.0E-06,1.0E-06,1.0E-06,1.0E-06,1.0E-06,1.0E-06,1.0E-06,1.0E-06,south-southwest,4.8
2022/11/26,14:50,1.0E-06,1.0E-06,1.0E-06,1.0E-06,1.0E-06,1.0E-06,1.0E-06,1.0E-06,south-southwest,4.0
2022/11/26,15:00,1.0E-06,1.0E-06,1.0E-06,1.0E-06,1.0E-06,1.0E-06,1.0E-06,1.0E-06,south-southwest,3.1
2022/11/26,15:10,1.0E-06,1.0E-06,1.0E-06,1.0E-06,1.0E-06,1.0E-06,1.0E-06,1.0E-06,south,3.8
2022/11/26,15:20,1.0E-06,1.0E-06,1.0E-06,1.0E-06,1.0E-06,1.0E-06,1.0E-06,1.0E-06,south,4.3
2022/11/26,15:30,1.0E-06,1.0E-06,1.0E-06,1.0E-06,1.0E-06,1.0E-06,1.0E-06,1.0E-06,south,4.4
2022/11/26,15:40,1.0E-06,1.0E-06,1.0E-06,1.0E-06,1.0E-06,1.0E-06,1.0E-06,1.0E-06,south-southwest,4.7
2022/11/26,15:50,1.0E-06,1.0E-06,1.0E-06,1.0E-06,1.0E-06,1.0E-06,1.0E-06,1.0E-06,south-southwest,5.0
2022/11/26,16:00,1.0E-06,1.0E-06,1.0E-06,1.0E-06,1.0E-06,1.0E-06,1.0E-06,1.0E-06,south-southwest,3.3
2022/11/26,16:10,1.0E-06,1.0E-06,1.0E-06,1.0E-06,1.0E-06,1.0E-06,1.0E-06,1.0E-06,southwest,1.3
2022/11/26,16:20,1.0E-06,1.0E-06,1.0E-06,1.0E-06,1.0E-06,1.0E-06,1.0E-06,1.0E-06,southwest,1.7
2022/11/26,16:30,1.0E-06,1.0E-06,1.0E-06,1.0E-06,1.0E-06,1.0E-06,1.0E-06,1.0E-06,south-southwest,3.8
2022/11/26,16:40,1.0E-06,1.0E-06,1.0E-06,1.0E-06,1.0E-06,1.0E-06,1.0E-06,1.0E-06,south-southwest,4.9
2022/11/26,16:50,1.0E-06,1.0E-06,1.0E-06,1.0E-06,1.0E-06,1.0E-06,1.0E-06,1.0E-06,south-southwest,4.8
2022/11/26,17:00,1.0E-06,1.0E-06,1.0E-06,1.0E-06,1.0E-06,1.0E-06,1.0E-06,1.0E-06,south-southwest,3.2
2022/11/26,17:10,1.0E-06,1.0E-06,1.0E-06,1.0E-06,1.0E-06,1.0E-06,1.0E-06,1.0E-06,southwest,1.7
2022/11/26,17:20,1.0E-06,1.0E-06,1.0E-06,1.0E-06,1.0E-06,1.0E-06,1.0E-06,1.0E-06,southwest,1.5
2022/11/26,17:30,1.0E-06,1.0E-06,1.0E-06,1.0E-06,1.0E-06,1.0E-06,1.0E-06,1.0E-06,southwest,2.1
2022/11/26,17:40,1.0E-06,1.0E-06,1.0E-06,1.0E-06,1.0E-06,1.0E-06,1.0E-06,1.0E-06,southwest,1.6
2022/11/26,17:50,1.0E-06,1.0E-06,1.0E-06,1.0E-06,1.0E-06,1.0E-06,1.0E-06,1.0E-06,southwest,1.3
2022/11/26,18:00,1.0E-06,1.0E-06,1.0E-06,1.0E-06,1.0E-06,1.0E-06,1.0E-06,1.0E-06,south,2.4
2022/11/26,18:10,1.0E-06,1.0E-06,1.0E-06,1.0E-06,1.0E-06,1.0E-06,1.0E-06,1.0E-06,south,2.8
2022/11/26,18:20,1.0E-06,1.0E-06,1.0E-06,1.0E-06,1.0E-06,1.0E-06,1.0E-06,1.0E-06,south,3.2
2022/11/26,18:30,1.0E-06,1.0E-06,1.0E-06,1.0E-06,1.0E-06,1.0E-06,1.0E-06,1.0E-06,south-southwest,2.2
2022/11/26,18:40,1.0E-06,1.0E-06,1.0E-06,1.0E-06,1.0E-06,1.0E-06,1.0E-06,1.0E-06,south-southwest,2.8
2022/11/26,18:50,1.0E-06,1.0E-06,1.0E-06,1.0E-06,1.0E-06,1.0E-06,1.0E-06,1.0E-06,south,2.2
2022/11/26,19:00,1.0E-06,1.0E-06,1.0E-06,1.0E-06,1.0E-06,1.0E-06,1.0E-06,1.0E-06,south,1.4
2022/11/26,19:10,1.0E-06,1.0E-06,1.0E-06,1.0E-06,1.0E-06,1.0E-06,1.0E-06,1.0E-06,southeast,1.2
2022/11/26,19:20,1.0E-06,1.0E-06,1.0E-06,1.0E-06,1.0E-06,1.0E-06,1.0E-06,1.0E-06,south-southeast,1.8
2022/11/26,19:30,1.0E-06,1.0E-06,1.0E-06,1.0E-06,1.0E-06,1.0E-06,1.0E-06,1.0E-06,south,0.8
2022/11/26,19:40,1.0E-06,1.0E-06,1.0E-06,1.0E-06,1.0E-06,1.0E-06,1.0E-06,1.0E-06,-,CALM
2022/11/26,19:50,1.0E-06,1.0E-06,1.0E-06,1.0E-06,1.0E-06,1.0E-06,1.0E-06,1.0E-06,southwest,0.7
2022/11/26,20:00,1.0E-06,1.0E-06,1.0E-06,1.0E-06,1.0E-06,1.0E-06,1.0E-06,1.0E-06,west,0.8
2022/11/26,20:10,1.0E-06,1.0E-06,1.0E-06,1.0E-06,1.0E-06,1.0E-06,1.0E-06,1.0E-06,-,CALM
2022/11/26,20:20,1.0E-06,1.0E-06,1.0E-06,1.0E-06,1.0E-06,1.0E-06,1.0E-06,1.0E-06,west-northwest,1.3
2022/11/26,20:30,1.0E-06,1.0E-06,1.0E-06,1.0E-06,1.0E-06,1.0E-06,1.0E-06,1.0E-06,west-northwest,1.3
2022/11/26,20:40,1.0E-06,1.0E-06,1.0E-06,1.0E-06,1.0E-06,1.0E-06,1.0E-06,1.0E-06,west-northwest,2.9
2022/11/26,20:50,1.0E-06,1.0E-06,1.0E-06,1.0E-06,1.0E-06,1.0E-06,1.0E-06,1.0E-06,west-northwest,2.7
2022/11/26,21:00,1.0E-06,1.0E-06,1.0E-06,1.0E-06,1.0E-06,1.0E-06,1.0E-06,1.0E-06,west-northwest,2.3
2022/11/26,21:10,1.0E-06,1.0E-06,1.0E-06,1.0E-06,1.0E-06,1.0E-06,1.0E-06,1.0E-06,west-northwest,2.3
2022/11/26,21:20,1.0E-06,1.0E-06,1.0E-06,1.0E-06,1.0E-06,1.0E-06,1.0E-06,1.0E-06,west-northwest,3.2
2022/11/26,21:30,1.0E-06,1.0E-06,1.0E-06,1.0E-06,1.0E-06,1.0E-06,1.0E-06,1.0E-06,northwest,3.5
2022/11/26,21:40,1.0E-06,1.0E-06,1.0E-06,1.0E-06,1.0E-06,1.0E-06,1.0E-06,1.0E-06,northwest,3.3
2022/11/26,21:50,1.0E-06,1.0E-06,1.0E-06,1.0E-06,1.0E-06,1.0E-06,1.0E-06,1.0E-06,northwest,3.8
2022/11/26,22:00,1.0E-06,1.0E-06,1.0E-06,1.0E-06,1.0E-06,1.0E-06,1.0E-06,1.0E-06,northwest,2.7
2022/11/26,22:10,1.0E-06,1.0E-06,1.0E-06,1.0E-06,1.0E-06,1.0E-06,1.0E-06,1.0E-06,northwest,3.9
2022/11/26,22:20,1.0E-06,1.0E-06,1.0E-06,1.0E-06,1.0E-06,1.0E-06,1.0E-06,1.0E-06,west-northwest,3.7
2022/11/26,22:30,1.0E-06,1.0E-06,1.0E-06,1.0E-06,1.0E-06,1.0E-06,1.0E-06,1.0E-06,northwest,5.1
2022/11/26,22:40,1.0E-06,1.0E-06,1.0E-06,1.0E-06,1.0E-06,1.0E-06,1.0E-06,1.0E-06,west-northwest,4.8
2022/11/26,22:50,1.0E-06,1.0E-06,1.0E-06,1.0E-06,1.0E-06,1.0E-06,1.0E-06,1.0E-06,west-northwest,3.1
2022/11/26,23:00,1.0E-06,1.0E-06,1.0E-06,1.0E-06,1.0E-06,1.0E-06,1.0E-06,1.0E-06,west-northwest,2.3
2022/11/26,23:10,1.0E-06,1.0E-06,1.0E-06,1.0E-06,1.0E-06,1.0E-06,1.0E-06,1.0E-06,west-northwest,2.0
2022/11/26,23:20,1.0E-06,1.0E-06,1.0E-06,1.0E-06,1.0E-06,1.0E-06,1.0E-06,1.0E-06,west,1.3
2022/11/26,23:30,1.0E-06,1.0E-06,1.0E-06,1.0E-06,1.0E-06,1.0E-06,1.0E-06,1.0E-06,west,1.6
2022/11/26,23:40,1.0E-06,1.0E-06,1.0E-06,1.0E-06,1.0E-06,1.0E-06,1.0E-06,1.0E-06,northwest,1.9
2022/11/26,23:50,1.0E-06,1.0E-06,1.0E-06,1.0E-06,1.0E-06,1.0E-06,1.0E-06,1.0E-06,northwest,2.1
